Preview of NWS' New Version of Forecast
This preview is not operational and should not be used for support decisions.
Latest weather observations around

Philadelphia, Philadelphia International Airport (KPHL)

Using English Units (Switch to International System of Units)
Date/ Time (EDT) Wind (mph) Vis. (mi) Weather Sky Cond. Temp (°F) Rel. Humidity Wind Chill (°F) Heat Index (°F) Pressure Precip. (in)
Air Dwpt 6 hour Altimeter (inHg) Sea level (inHg) 1 hr 3 hr 6 hr
Max Min
Jul 21 23:33 WNW 11 10 Mostly Cloudy FEW065 SCT085 SCT180 BKN250 89 67     48%   92 29.85   0    
Jul 21 22:54 W 13 10 Mostly Cloudy FEW045 SCT090 BKN130 BKN200 89 75     63%   99 29.85 29.85      
Jul 21 21:54 WSW 13 10 Partly Cloudy FEW045 FEW120 SCT250 91 75     60%   102 29.84 29.84      
Jul 21 20:54 SW 10 10 Mostly Clear FEW055 FEW250 93 75     56%   105 29.83 29.83      
Jul 21 19:54 SW 11 10 Mostly Clear FEW055 FEW250 93 75     56%   105 29.81 29.81      
Jul 21 18:54 SW 11 10 Mostly Clear FEW050 96 75     51%   109 29.8 29.8      
Jul 21 17:54 W 11 10 Partly Cloudy SCT050 98 72     43%   107 29.8 29.79      
Jul 21 16:54 W 13 10 Partly Cloudy SCT050 98 73     45%   109 29.79 29.79      
Jul 21 15:54 W 14 10 Mostly Clear FEW050 97 74     48%   108 29.8 29.8      
Jul 21 14:54 WSW 15 10 Mostly Clear FEW050 97 73     46%   107 29.82 29.82      
Jul 21 13:54 WSW 14 10 Mostly Clear FEW050 97 72     45%   106 29.82 29.82      
Jul 21 12:54 SW 11 10 Mostly Clear FEW045 FEW130 96 73     48%   106 29.83 29.82      
Jul 21 11:54 SW 11 10 Mostly Clear FEW035 FEW130 94 73     51%   103 29.84 29.84      
Jul 21 10:54 WNW 10 10 Mostly Clear FEW130 FEW180 93 73     52%   102 29.86 29.85      
Jul 21 09:54 WNW 11 10 Mostly Clear FEW160 FEW220 91 73     56%   100 29.86 29.85      
Jul 21 08:54 WNW 9 10 Partly Cloudy SCT160 SCT220 87 74     65%   95 29.86 29.86      
Jul 21 07:54 6 10 Partly Cloudy SCT220 86 74     67%   94 29.86 29.86      
Jul 21 06:54 W 8 10 Partly Cloudy SCT210 83 75     77%   90 29.84 29.84      
Jul 21 05:54 SW 6 10 Partly Cloudy SCT210 83 75     77%   90 29.82 29.81      
Jul 21 04:54 SSW 5 10 Partly Cloudy SCT150 83 75     77%   90 29.8 29.8      
Jul 21 03:54 WSW 7 10 Clear CLR 83 74     74%   89 29.83 29.83      
Jul 21 02:54 WSW 7 10 Mostly Clear FEW250 85 74     70%   92 29.83 29.82      
Jul 21 01:54 WSW 7 10 Mostly Clear FEW250 85 77     77%   95 29.83 29.83      
Jul 21 00:54 WSW 9 10 Mostly Clear FEW250 87 78     75%   100 29.84 29.83      
Jul 20 23:54 WSW 8 10 Partly Cloudy SCT250 87 78     75%   100 29.83 29.83      
Jul 20 22:54 SW 9 10 Partly Cloudy SCT250 89 77     68%   102 29.84 29.83      
Jul 20 21:54 SW 10 10 Partly Cloudy FEW180 SCT250 90 77     66%   103 29.85 29.84      
Jul 20 20:54 SW 10 10 Mostly Cloudy SCT180 BKN250 91 75     60%   102 29.84 29.83      
Jul 20 19:54 WSW 13 10 Mostly Cloudy FEW080 SCT180 BKN250 92 75     58%   103 29.84 29.83      
Jul 20 18:54 SW 13 10 Partly Cloudy FEW050 SCT080 SCT250 94 75     54%   106 29.83 29.82      
Jul 20 17:54 WSW 14 10 Partly Cloudy FEW055 SCT070 SCT250 96 74     49%   107 29.82 29.82      
Jul 20 16:54 SW 14 10 Partly Cloudy SCT055 SCT250 97 72     45%   106 29.81 29.81      
Jul 20 15:54 WSW 11 10 Partly Cloudy SCT055 SCT250 97 71     43%   105 29.82 29.82      
Jul 20 14:54 WSW 10 10 Partly Cloudy SCT060 SCT250 96 72     46%   105 29.83 29.83      
Jul 20 13:54 S 8 10 Mostly Cloudy FEW060 BKN250 94 72     49%   102 29.85 29.85      
Jul 20 12:54 S 9 10 Clear   93 71     49%   100 29.87 29.86      
Jul 20 11:54 WNW 10 10 Mostly Cloudy FEW060 BKN250 93 72     51%   101 29.9 29.89      
Jul 20 10:54 WNW 9 10 Mostly Cloudy BKN250 91 72     54%   99 29.92 29.91      
Jul 20 09:54 WNW 8 10 Mostly Cloudy BKN250 89 71     55%   95 29.9 29.9      
Jul 20 08:54 WNW 8 10 Partly Cloudy SCT250 86 72     63%   92 29.91 29.91      
Jul 20 07:54 SW 5 10 Mostly Clear FEW070 FEW250 83 73     72%   89 29.9 29.9      
Jul 20 06:54 WSW 9 10 Partly Cloudy FEW070 SCT250 82 74     77%   88 29.91 29.9      
Jul 20 05:54 WSW 7 8 Mostly Clear FEW250 81 77     88%   88 29.91 29.91      
Jul 20 04:54 W 7 10 Mostly Clear FEW250 81 77     88%   88 29.89 29.89      
Jul 20 03:54 SSW 8 10 Mostly Clear FEW250 81 77     88%   88 29.87 29.87      
Jul 20 02:54 WSW 6 10 Mostly Clear FEW250 82 76     82%   89 29.88 29.88      
Jul 20 01:54 WSW 9 10 Partly Cloudy SCT250 83 76     79%   91 29.88 29.88      
Jul 20 00:54 SW 10 10 Partly Cloudy SCT250 85 76     75%   94 29.87 29.87      
Jul 19 23:54 SW 9 10 Partly Cloudy SCT250 85 76     75%   94 29.88 29.87      
Jul 19 22:54 SW 11 10 Partly Cloudy SCT250 87 76     70%   98 29.88 29.88      
Jul 19 21:54 SW 10 10 Partly Cloudy SCT250 88 75     66%   98 29.89 29.88      
Jul 19 20:54 SW 11 10 Partly Cloudy SCT250 90 75     62%   101 29.89 29.88      
Jul 19 19:54 SW 10 10 Partly Cloudy SCT250 91 74     57%   101 29.87 29.87      
Jul 19 18:54 SW 15 10 Partly Cloudy FEW045 SCT250 93 73     52%   102 29.86 29.85      
Jul 19 17:54 SW 13 10 Partly Cloudy FEW040 SCT060 93 73     52%   102 29.86 29.86      
Jul 19 16:54 SW 15 10 Partly Cloudy FEW040 SCT060 94 73     51%   103 29.88 29.88      
Jul 19 15:54 SW 9 10 Partly Cloudy SCT040 94 74     53%   104 29.88 29.88      
Jul 19 14:54 SW 14 10 Partly Cloudy SCT045 94 73     51%   103 29.89 29.89      
Jul 19 13:54 SW 13 10 Partly Cloudy SCT035 93 73     52%   102 29.9 29.9      
Jul 19 12:54 SW 10 10 Mostly Clear FEW025 90 72     56%   97 29.92 29.92      
Jul 19 11:54 WSW 9 10 Mostly Clear FEW025 88 72     59%   95 29.93 29.93      
Jul 19 10:54 SSW 9 10 Mostly Clear FEW018 85 73     68%   92 29.94 29.93      
Jul 19 09:54 WSW 5 10 Partly Cloudy FEW009 SCT013 82 73     74%   87 29.93 29.93      
Jul 19 09:21 SSW 6 7 Partly Cloudy FEW007 SCT013 81 75     82%   87 29.93        
Jul 19 08:54 S 6 7 Mostly Cloudy FEW005 BKN011 BKN015 79 75     88%   83 29.94 29.93      
Jul 19 08:51 S 6 7 Mostly Cloudy FEW005 BKN011 BKN015 79 75     89%   82 29.94        
Jul 19 08:14 Calm 7 Mostly Cloudy SCT004 BKN007 BKN012 78 75     90%   80 29.93        
Jul 19 07:54 SSE 3 6 Fog/Mist FEW004 SCT008 BKN022 78 75     90%   80 29.92 29.92      
Jul 19 07:47 ESE 3 6 Fog/Mist FEW004 SCT007 BKN022 77 74     90%   79 29.92        
Jul 19 07:13 S 5 6 Fog/Mist FEW004 SCT008 OVC020 77 74     90%   79 29.93        
Jul 19 06:54 Calm 7 Cloudy FEW004 BKN007 OVC012 77 74     90%   79 29.92 29.92      
Jul 19 06:36 SW 5 5 Fog/Mist FEW004 BKN007 OVC011 77 74     90%   79 29.92        
Jul 19 06:04 S 5 7 Cloudy FEW003 BKN006 OVC014 76 74     94%   78 29.91        
Jul 19 05:54 SSE 3 7 Mostly Cloudy SCT006 BKN014 76 74     94%   78 29.91 29.91      
Jul 19 05:50 SSE 3 7 Mostly Cloudy SCT006 BKN014 75 73     94%   77 29.91        
Jul 19 05:27 Calm 7 Partly Cloudy FEW005 SCT015 75 73     94%   77 29.89        
Jul 19 04:54 SE 5 5 Fog/Mist BKN015 BKN030 OVC050 76 74     94%   78 29.9 29.9      
Jul 19 04:50 SE 5 5 Fog/Mist BKN015 BKN030 OVC050 75 73     94%   77 29.9        
Jul 19 04:00 SE 3 5 Fog/Mist BKN011 BKN030 BKN045 77 74     90%   79 29.9        
Jul 19 03:54 ESE 3 7 Cloudy SCT011 BKN030 OVC040 77 74     90%   79 29.91 29.9      
Jul 19 03:09 ESE 3 7 Mostly Cloudy FEW018 SCT025 BKN040 77 74     90%   79 29.9        
Jul 19 02:54 E 5 6 Fog/Mist BKN019 BKN027 OVC050 77 74     90%   79 29.9 29.9      
Jul 19 02:26 E 3 6 Fog/Mist BKN020 BKN033 OVC060 78 75     90%   80 29.9        
Jul 19 01:54 E 6 6 Fog/Mist BKN010 BKN024 BKN050 78 75     90%   80 29.9 29.89      
Jul 19 01:45 ESE 7 6 Fog/Mist BKN010 BKN024 BKN050 78 75     90%   80 29.89        
Jul 19 01:35 ESE 7 7 Cloudy BKN010 BKN021 OVC040 78 75     90%   80 29.89        
Jul 19 01:06 Calm 7 Cloudy BKN016 BKN021 OVC040 78 75     90%   80 29.9        
Jul 19 00:54 Calm 7 Mostly Cloudy BKN011 BKN025 BKN080 BKN250 78 75     90%   80 29.9 29.9      
Jul 19 00:46 Calm 7 Mostly Cloudy BKN011 BKN025 BKN080 BKN250 78 75     90%   80 29.9        
Jul 19 00:11 E 6 7 Mostly Cloudy FEW006 SCT012 BKN080 78 76     93%   80 29.9        
Jul 18 23:54 E 3 10 Partly Cloudy FEW011 SCT095 SCT280 78 75     90%   80 29.9 29.89      
Jul 18 22:54 Calm 10 Mostly Cloudy FEW011 SCT090 BKN140 BKN280 78 76     93%   80 29.88 29.88      
Jul 18 21:54 Calm 10 Mostly Cloudy FEW014 SCT070 SCT120 BKN250 79 76     90%   83 29.87 29.87      
Jul 18 20:54 Calm 10 Mostly Cloudy SCT014 BKN100 BKN250 80 75     85%   85 29.86 29.86      
Jul 18 19:54 Calm 10 Mostly Cloudy FEW015 BKN090 BKN130 BKN250 80 75     85%   85 29.86 29.86     0
Jul 18 18:54 Calm 10 Cloudy FEW040 SCT090 BKN130 OVC220 80 76     87%   85 29.86 29.86      
Jul 18 17:54 Calm 10 Cloudy FEW030 SCT050 BKN180 OVC250 81 75     82%   87 29.86 29.86 0    
Jul 18 17:01 NNE 5 10 Light Rain FEW034 SCT050 BKN080 BKN160 81 73     77%   86 29.86   0    
Jul 18 16:54 N 5 10 Thunderstorms and Rain FEW034 BKN050 BKN080 BKN160 81 73     77%   86 29.86 29.85 0 0  
Jul 18 16:38 NNW 10 10 Thunderstorms FEW014 SCT060 BKN075 BKN160 82 76     82%   89 29.86   0    
Jul 18 16:03 W 9 6 Thunderstorms and Rain FEW027 BKN055 OVC095 81 77     88%   88 29.87   0    
Jul 18 15:54 W 9 6 Thunderstorms and Rain SCT050 BKN090 OVC140 82 77     85%   90 29.86 29.86 0    
Jul 18 15:21 NNW 10 6 Thunderstorms and Rain and Fog/Mist SCT035 BKN090 BKN140 BKN200 81 77     88%   88 29.86   0    
Jul 18 15:07 NW 8 6 Light Rain SCT035 SCT090 BKN140 BKN200 83 73     72%   89 29.85   0    
Jul 18 14:54 5 10 Mostly Cloudy SCT030 SCT085 BKN140 BKN200 83 75     77%   90 29.85 29.85 0    
Jul 18 14:30 N 5 10 Mostly Cloudy FEW030 SCT045 BKN085 BKN250 80 75     85%   85 29.85   0    
Jul 18 13:54 NNW 8 10 Thunderstorms and Rain SCT030 BKN044 BKN070 82 75     79%   89 29.87 29.87 0   0
Jul 18 13:12 S 5 10 Thunderstorms SCT030 BKN110 BKN160 87 74     65%   95 29.86        
Jul 18 12:54 SSE 5 10 Mostly Cloudy SCT030 BKN100 BKN160 87 75     68%   97 29.86 29.86      
Jul 18 11:54 Calm 10 Mostly Cloudy SCT018 SCT065 BKN100 BKN150 87 75     68%   97 29.87 29.87      
Jul 18 11:08 SW 3 10 Mostly Cloudy SCT018 BKN065 BKN100 BKN150 86 75     70%   95 29.88        
Jul 18 10:54 Calm 10 Mostly Cloudy BKN015 BKN065 BKN100 BKN150 83 75     77%   90 29.89 29.88   0  
Jul 18 09:54 S 5 9 Cloudy OVC014 80 75     85%   85 29.9 29.89      
Jul 18 09:32 S 3 10 Cloudy BKN012 BKN065 BKN100 OVC150 79 75     88%   83 29.9        
Jul 18 08:54 S 5 8 Cloudy FEW009 SCT060 BKN100 OVC150 79 75     88%   83 29.89 29.89 0    
Jul 18 07:54 S 5 8 Light Rain FEW008 BKN060 BKN095 OVC150 78 75     90%   80 29.89 29.89 0   0
Jul 18 06:54 Calm 10 Cloudy FEW009 SCT065 SCT100 OVC150 77 74     90%   79 29.89 29.89      
Jul 18 06:08 S 5 10 Mostly Cloudy SCT009 BKN065 BKN140 BKN250 77 74     90%   79 29.88        
Jul 18 05:54 S 6 9 Cloudy BKN009 BKN060 OVC130 77 74     90%   79 29.88 29.88      
Jul 18 05:47 S 6 8 Mostly Cloudy BKN009 BKN060 BKN100 BKN250 77 74     90%   79 29.88        
Jul 18 05:32 SSW 5 8 Mostly Cloudy SCT009 BKN060 BKN100 BKN250 77 74     90%   79 29.88        
Jul 18 04:54 S 6 7 Cloudy SCT007 BKN060 OVC085 77 74     90%   79 29.88 29.88      
Jul 18 04:44 5 7 Cloudy SCT007 BKN060 OVC085 76 73     91%   77 29.88        
Jul 18 04:32 Calm 10 Cloudy BKN007 BKN045 OVC080 76 73     91%   77 29.88        
Jul 18 04:05 SW 6 10 Cloudy SCT008 BKN075 BKN100 OVC170 76 73     91%   77 29.88        
Jul 18 03:54 SSW 5 10 Mostly Cloudy BKN075 BKN100 BKN170 76 73     91%   77 29.88 29.87      
Jul 18 02:54 Calm 10 Mostly Cloudy BKN085 BKN120 BKN180 BKN240 76 72     88%   77 29.89 29.89      
Jul 18 01:54 5 10 Mostly Cloudy SCT080 BKN120 BKN210 BKN280 76 72     88%   77 29.91 29.91     0
Jul 18 00:54 S 7 10 Cloudy BKN110 BKN150 OVC200 77 72     84%   78 29.91 29.91      
Jul 17 23:54 SE 5 10 Cloudy SCT085 BKN150 BKN190 OVC250 76 72     88%   77 29.9 29.89      
Jul 17 22:54 Calm 10 Cloudy BKN090 BKN130 OVC180 76 71     85%   77 29.89 29.88 0 0  
Jul 17 22:31 SSE 3 10 Light Rain SCT090 BKN150 OVC180 75 72     90%   76 29.89   0    
Jul 17 21:54 SSW 6 7 Light Rain FEW090 BKN130 OVC170 76 72     88%   77 29.9 29.9 0    
Jul 17 21:32 SW 9 9 Light Rain SCT035 SCT080 OVC130 76 72     88%   77 29.91   0    
Jul 17 20:54 WSW 15 7 Thunderstorms and Rain SCT034 BKN050 BKN080 OVC130 77 72     84%   78 29.93 29.92 0    
Jul 17 20:45   7 Thunderstorms and Rain SCT034 BKN050 BKN080 OVC130 77 72     84%   78 29.93   0    
Jul 17 20:37 WSW 21 7 Cloudy and Windy SCT034 BKN050 BKN080 OVC130 78 72     82%   79 29.93   0    
Jul 17 20:30 WSW 20 7 Thunderstorms and Rain BKN034 BKN050 OVC110 77 72     84%   78 29.93   0    
Jul 17 20:18 WSW 17 5 Thunderstorms and Rain and Fog/Mist SCT031 BKN041 BKN050 OVC130 76 73     91%   77 29.93   0    
Jul 17 20:04   2 Thunderstorms and Heavy Rain SCT034 BKN050 BKN100 OVC180 79 71     77%   82 29.94   0    
Jul 17 20:02   3 Thunderstorms and Rain and Squalls SCT055 BKN100 BKN180 OVC250 82 69     65%   85 29.93   0    
Jul 17 19:54   10 Thunderstorms and Squalls SCT055 BKN100 BKN180 OVC250 89 72     57%   96 29.89 29.89      
Jul 17 19:50 S 8 10 Thunderstorms SCT055 BKN100 BKN180 OVC250 90 73     59%   98 29.86        
Jul 17 18:54 SSW 11 10 Mostly Cloudy SCT060 BKN090 BKN250 93 70     47%   99 29.84 29.84      
Jul 17 17:54 SSW 14 10 Partly Cloudy SCT055 SCT080 SCT250 95 68     42%   100 29.84 29.84      
Jul 17 16:54 SSW 13 10 Partly Cloudy SCT055 SCT250 95 70     44%   102 29.86 29.85      
Jul 17 15:54 SSW 14 10 Partly Cloudy SCT050 SCT250 95 69     43%   101 29.88 29.88      
Jul 17 14:54 SW 11 10 Mostly Cloudy SCT050 BKN250 94 72     49%   102 29.9 29.9      
Jul 17 13:54 SW 11 10 Mostly Cloudy SCT040 BKN250 94 73     51%   103 29.92 29.92      
Jul 17 12:54 SW 13 10 Mostly Cloudy FEW038 BKN250 93 74     54%   103 29.94 29.94      
Jul 17 11:54 SW 13 10 Mostly Cloudy FEW037 BKN250 91 73     56%   100 29.96 29.96      
Jul 17 10:54 WSW 9 10 Partly Cloudy FEW032 FEW200 SCT250 88 74     63%   97 29.97 29.96      
Jul 17 09:54 SW 9 10 Partly Cloudy FEW200 SCT250 85 74     70%   92 29.98 29.98      
Jul 17 08:54 SW 9 10 Mostly Cloudy SCT200 BKN250 83 73     72%   89 29.99 29.99      
Jul 17 07:54 SSW 8 10 Mostly Cloudy BKN200 BKN250 81 73     77%   86 29.98 29.98      
Jul 17 06:54 SSW 10 10 Mostly Cloudy BKN200 BKN250 80 73     79%   84 29.98 29.98      
Jul 17 05:54 S 7 10 Mostly Cloudy FEW120 BKN200 BKN250 80 74     82%   85 29.98 29.97      
Jul 17 04:54 SSW 7 10 Cloudy SCT120 BKN180 OVC250 80 74     82%   85 29.98 29.98      
Jul 17 03:54 S 7 10 Cloudy BKN130 BKN170 OVC210 80 75     85%   85 29.97 29.97      
Jul 17 02:54 S 6 10 Cloudy BKN140 OVC200 80 74     82%   85 29.98 29.98      
Jul 17 01:54 S 6 10 Clear   80 74     82%   85 30 30     0
Jul 17 00:54 SSW 6 10 Cloudy SCT100 BKN160 OVC220 80 73     79%   84 30.02 30.01      
Jul 16 23:54 SSW 6 10 Cloudy SCT090 BKN140 OVC200 81 73     77%   86 30.03 30.03 0    
Jul 16 22:54 Calm 10 Cloudy SCT100 BKN140 BKN190 OVC250 80 72     76%   84 30.04 30.04 0 0  
Jul 16 22:01 E 6 10 Cloudy SCT045 OVC220 79 71     77%   82 30.05   0    
Jul 16 21:54 N 9 10 Thunderstorms and Rain FEW027 BKN040 BKN150 79 71     77%   82 30.04 30.04 0    
Jul 16 21:51 NE 8 10 Thunderstorms and Rain FEW027 BKN040 BKN150 79 72     79%   82 30.04   0    
Jul 16 21:46 S 6 6 Thunderstorms and Rain FEW027 BKN040 OVC070 83 69     63%   87 30.05   0    
Jul 16 21:18 S 8 10 Thunderstorms FEW050 BKN220 BKN260 83 71     67%   88 30.03        
Jul 16 18:54 SSW 10 10 Mostly Cloudy FEW050 SCT160 BKN250 90 67     47%   93 30.02 30.01      
Jul 16 17:54 SSW 9 10 Mostly Cloudy SCT160 BKN250 90 67     47%   93 30 30      
Jul 16 16:54 SSW 9 10 Mostly Cloudy FEW060 BKN250 92 66     43%   95 30.02 30.01      
Jul 16 15:54 SW 9 10 Partly Cloudy FEW060 SCT250 91 66     44%   94 30.03 30.02      
Jul 16 14:54 3 10 Partly Cloudy FEW060 SCT250 90 66     45%   93 30.04 30.04      
Jul 16 13:54 WSW 9 10 Partly Cloudy FEW055 SCT250 90 67     47%   93 30.06 30.06      
Jul 16 12:54 W 13 10 Partly Cloudy FEW055 SCT250 89 63     42%   90 30.08 30.07      
Jul 16 11:54 SW 11 10 Partly Cloudy FEW046 SCT250 86 65     50%   88 30.09 30.09      
Jul 16 10:54 WSW 8 10 Partly Cloudy FEW043 SCT250 85 66     53%   87 30.1 30.1      
Jul 16 09:54 SSW 6 10 Mostly Clear FEW250 82 65     56%   84 30.1 30.1      
Jul 16 08:54 S 3 10 Partly Cloudy SCT250 79 67     67%   80 30.11 30.1      
Jul 16 07:54 Calm 10 Mostly Cloudy BKN250 75 68     79%   76 30.1 30.1      
Jul 16 06:54 Calm 10 Mostly Cloudy BKN250 73 67     81%   74 30.1 30.09      
Jul 16 05:54 SW 5 10 Mostly Cloudy BKN250 72 66     82%   73 30.08 30.07      
Jul 16 04:54 Calm 10 Mostly Cloudy BKN250 71 66     84%   72 30.07 30.06      
Jul 16 03:54 SSW 3 10 Mostly Cloudy BKN250 72 65     79%   73 30.06 30.06      
Jul 16 02:54 Calm 10 Mostly Clear FEW250 73 66     79%   74 30.07 30.06      
Jul 16 01:54 S 3 10 Mostly Clear FEW250 73 65     76%   74 30.07 30.07      
Jul 16 00:54 SW 5 10 Clear   77 63     62%   77 30.07 30.07      
Jul 15 23:54 SW 6 10 Mostly Cloudy BKN250 78 62     58%   78 30.07 30.07      
Jul 15 22:54 W 6 10 Mostly Cloudy BKN250 80 59     49%   81 30.06 30.06      
Jul 15 21:54 W 6 10 Mostly Cloudy BKN280 82 58     44%   82 30.05 30.05      
Jul 15 20:54 WNW 7 10 Mostly Cloudy BKN280 83 58     43%   83 30.04 30.04      
Jul 15 19:54 NW 8 10 Mostly Cloudy FEW200 BKN280 85 57     39%   84 30.03 30.03      
Jul 15 18:54 WNW 10 10 Partly Cloudy FEW200 SCT300 86 57     37%   85 30.02 30.02      
Jul 15 17:54 WNW 9 10 Partly Cloudy FEW200 SCT300 86 55     35%   84 30.02 30.02      
Jul 15 16:54 W 10 10 Partly Cloudy FEW060 SCT300 87 56     35%   86 30.03 30.03      
Jul 15 15:54 WNW 11 10 Partly Cloudy FEW060 SCT300 87 57     36%   86 30.04 30.03      
Jul 15 15:29 WNW 6 10 Partly Cloudy FEW060 SCT300 85 55     36%   84 30.04        
Jul 15 14:54   10 Partly Cloudy FEW060 SCT300 85 55     36%   84 30.05 30.04      
Jul 15 13:54 NW 11 10 Mostly Cloudy FEW055 BKN300 84 55     37%   83 30.06 30.06      
Jul 15 12:54 W 11 10 Partly Cloudy FEW055 SCT300 84 57     40%   83 30.07 30.07      
Jul 15 11:54 NNW 8 10 Mostly Clear FEW300 82 57     43%   82 30.09 30.09      
Jul 15 10:54 E 3 10 Partly Cloudy SCT300 80 58     47%   80 30.1 30.1      
Jul 15 09:54 SE 6 10 Partly Cloudy SCT300 79 59     50%   79 30.1 30.1      
Jul 15 08:54 N 8 10 Mostly Clear FEW300 77 58     52%   77 30.1 30.1      
Jul 15 07:54 NNE 9 10 Mostly Clear FEW300 74 58     57%   74 30.09 30.09      
Jul 15 06:54 NW 6 10 Partly Cloudy SCT300 73 58     59%   73 30.08 30.08      
Jul 15 05:54 NNE 7 10 Partly Cloudy SCT300 71 58     63%   71 30.07 30.06      
Jul 15 04:54 N 6 10 Partly Cloudy SCT280 72 59     64%   72 30.06 30.06      
Jul 15 03:54 NNE 6 10 Mostly Cloudy BKN280 73 59     61%   73 30.05 30.04      
Jul 15 02:54 N 7 10 Partly Cloudy SCT280 74 59     60%   74 30.05 30.04      
Jul 15 01:54 N 8 10 Clear CLR 74 59     60%   74 30.04 30.04      
Jul 15 00:54 N 3 10 Mostly Clear FEW280 75 59     57%   75 30.03 30.03      
Jul 14 23:54 NNW 7 10 Mostly Clear FEW280 78 60     54%   78 30.02 30.02      
Jul 14 22:54 N 7 10 Mostly Clear FEW280 79 60     52%   79 30 30      
Jul 14 21:54 NNW 7 10 Mostly Clear FEW280 82 60     47%   82 29.99 29.99      
Jul 14 20:54 NNW 9 10 Mostly Clear FEW060 FEW250 84 61     46%   84 29.98 29.97      
Jul 14 19:54 NW 10 10 Mostly Clear FEW060 FEW250 87 60     40%   87 29.96 29.96      
Jul 14 18:54 NW 14 10 Mostly Clear FEW060 FEW250 89 62     41%   90 29.95 29.95      
Jul 14 17:54 NW 13 10 Mostly Cloudy SCT060 BKN250 89 63     42%   90 29.95 29.95      
Jul 14 16:54 NW 11 10 Mostly Cloudy SCT060 BKN250 91 64     41%   93 29.95 29.95      
Jul 14 15:54 WNW 16 10 Mostly Cloudy FEW050 BKN250 90 64     42%   91 29.95 29.94      
Jul 14 14:54 W 11 10 Mostly Cloudy FEW050 BKN250 89 65     45%   91 29.95 29.95      
Jul 14 13:54 WSW 13 10 Mostly Cloudy SCT055 BKN250 90 66     45%   93 29.95 29.95      
Jul 14 12:54 SSW 8 10 Mostly Cloudy BKN250 89 66     47%   92 29.97 29.96      
Jul 14 11:54 WNW 6 10 Mostly Cloudy BKN250 87 66     50%   89 29.97 29.97      
Jul 14 10:54 NW 8 10 Mostly Cloudy BKN250 86 66     51%   88 29.98 29.98      
Jul 14 09:54 WNW 8 10 Partly Cloudy SCT250 85 65     51%   87 29.98 29.98      
Jul 14 08:54 W 9 10 Partly Cloudy FEW030 SCT250 81 67     62%   83 29.98 29.98      
Jul 14 07:54 WSW 8 10 Mostly Clear FEW160 FEW250 78 68     71%   79 29.98 29.98      
Jul 14 06:54 SW 6 10 Mostly Clear FEW160 FEW250 76 68     76%   77 29.97 29.97      
Jul 14 05:54 SW 5 10 Mostly Clear FEW250 75 68     79%   76 29.96 29.96      
Jul 14 04:54 SW 5 10 Clear CLR 75 69     82%   76 29.95 29.95      
Jul 14 03:54 WSW 6 10 Clear CLR 76 69     79%   77 29.93 29.93      
Jul 14 02:54 SW 8 10 Clear CLR 77 69     77%   78 29.93 29.93      
Jul 14 01:54 WSW 7 10 Clear CLR 77 69     77%   78 29.93 29.93      
Jul 14 00:54 SW 6 10 Clear CLR 78 69     74%   79 29.93 29.93      
Jul 13 23:54 SW 8 10 Clear CLR 80 67     64%   82 29.94 29.94      
Jul 13 22:54 WSW 7 10 Clear CLR 80 67     64%   82 29.95 29.95      
Jul 13 21:54 SW 8 10 Clear CLR 83 65     55%   85 29.95 29.94      
Jul 13 20:54 WSW 7 10 Clear CLR 84 64     51%   85 29.94 29.94      
Jul 13 19:54 W 8 10 Clear CLR 85 62     46%   86 29.92 29.92      
Jul 13 18:54 WNW 8 10 Clear CLR 86 63     46%   87 29.92 29.92      
Jul 13 17:54 W 13 10 Clear CLR 87 61     42%   87 29.92 29.92      
Jul 13 16:54 WSW 13 10 Mostly Clear FEW050 88 62     42%   88 29.93 29.92      
Jul 13 15:54 WSW 10 10 Mostly Clear FEW050 87 62     43%   88 29.93 29.93      
Jul 13 14:54 SW 10 10 Mostly Clear FEW046 86 63     46%   87 29.95 29.94      
Jul 13 13:54 SW 9 10 Mostly Clear FEW044 85 62     46%   86 29.96 29.95      
Jul 13 12:54 WSW 8 10 Partly Cloudy SCT044 84 63     49%   85 29.97 29.97      
Jul 13 11:54 WSW 7 10 Partly Cloudy SCT040 82 63     53%   83 29.98 29.97      
Jul 13 10:54 S 6 10 Partly Cloudy SCT045 80 64     58%   82 29.98 29.97      
Jul 13 09:54 SE 3 10 Mostly Clear FEW045 80 64     58%   82 29.97 29.97      
Jul 13 08:54 Calm 10 Mostly Clear FEW055 79 63     58%   79 29.97 29.97      
Jul 13 07:54 N 6 10 Mostly Clear FEW060 74 63     69%   74 29.97 29.96      
Jul 13 06:54 NNW 3 10 Mostly Clear FEW060 73 63     71%   73 29.95 29.94      
Jul 13 05:54 Calm 10 Partly Cloudy SCT060 72 63     73%   72 29.94 29.94      
Jul 13 04:54 NNW 6 10 Partly Cloudy SCT060 72 63     73%   72 29.92 29.91      
Jul 13 03:54 Calm 10 Mostly Clear FEW050 73 63     71%   73 29.9 29.89      
Jul 13 02:54 NNW 5 10 Mostly Clear FEW060 74 62     66%   74 29.9 29.89      
Jul 13 01:54 Calm 10 Mostly Clear FEW060 76 63     64%   76 29.89 29.89      
Jul 13 00:54 NNW 3 10 Clear CLR 76 62     62%   76 29.88 29.88      
Jul 12 23:54 NNW 5 10 Clear CLR 77 63     62%   77 29.88 29.88      
Jul 12 22:54 NNW 3 10 Clear CLR 80 63     56%   81 29.87 29.87      
Jul 12 21:54 NNW 5 10 Clear CLR 82 62     51%   83 29.86 29.86      
Jul 12 20:54 NNW 6 10 Mostly Clear FEW060 82 62     51%   83 29.83 29.83      
Jul 12 19:54 WNW 9 10 Partly Cloudy SCT060 86 60     42%   86 29.81 29.81      
Jul 12 18:54 NW 13 10 Partly Cloudy SCT065 87 60     40%   87 29.8 29.79      
Jul 12 17:54 WNW 14 10 Partly Cloudy SCT055 88 62     42%   88 29.78 29.78      
Jul 12 16:54 NW 18 10 Partly Cloudy SCT055 88 63     43%   89 29.77 29.77      
Jul 12 15:54 WNW 15 10 Partly Cloudy SCT055 88 62     42%   88 29.77 29.77      
Jul 12 14:54 W 18 10 Partly Cloudy SCT050 SCT065 88 65     47%   90 29.77 29.77      
Jul 12 13:54 W 13 10 Partly Cloudy SCT047 86 65     50%   88 29.78 29.77      
Jul 12 12:54 WNW 13 10 Partly Cloudy SCT042 86 66     51%   88 29.78 29.78      
Jul 12 11:54 WNW 10 10 Partly Cloudy SCT034 84 67     57%   87 29.79 29.78      
Jul 12 10:54 W 8 10 Partly Cloudy SCT022 81 70     69%   84 29.79 29.79      
Jul 12 10:00 W 8 10 Partly Cloudy SCT018 SCT100 78 69     74%   79 29.79        
Jul 12 09:54 W 8 10 Mostly Cloudy BKN017 78 70     76%   79 29.79 29.79      
Jul 12 09:29 WNW 9 9 Mostly Cloudy BKN015 77 69     77%   78 29.79        
Jul 12 08:54 WNW 7 8 Mostly Cloudy BKN012 75 69     82%   76 29.79 29.79      
Jul 12 07:54 WSW 10 7 Mostly Cloudy BKN010 BKN250 74 69     85%   75 29.78 29.78      
Jul 12 07:48 WSW 11 7 Mostly Cloudy BKN010 BKN250 73 70     89%   75 29.78        
Jul 12 07:31 WSW 9 7 Partly Cloudy SCT009 SCT250 74 70     87%   75 29.77        
Jul 12 06:54 WSW 11 6 Fog/Mist SCT008 BKN250 74 71     91%   75 29.77 29.77      
Jul 12 05:54 W 9 5 Fog/Mist FEW009 SCT030 SCT250 73 70     90%   74 29.75 29.75      
Jul 12 05:46 W 7 6 Fog/Mist FEW009 SCT030 SCT250 73 70     90%   74 29.75        
Jul 12 04:54 W 8 10 Partly Cloudy FEW010 SCT030 SCT250 73 71     94%   74 29.74 29.74      
Jul 12 03:54 W 10 10 Cloudy FEW012 OVC023 73 71     94%   74 29.74 29.74      
Jul 12 02:54 WSW 10 10 Cloudy BKN025 BKN045 OVC070 73 71     94%   74 29.75 29.75      
Jul 12 02:21 W 9 10 Cloudy BKN023 OVC045 73 71     94%   74 29.76        
Jul 12 01:54 WSW 7 10 Mostly Cloudy FEW008 SCT120 BKN280 74 71     91%   75 29.76 29.76     0
Jul 12 01:37 WSW 6 10 Mostly Cloudy SCT009 SCT024 BKN080 BKN280 74 72     94%   75 29.77        
Jul 12 01:06 WSW 6 10 Mostly Cloudy SCT005 BKN012 BKN031 74 72     94%   75 29.76        
Jul 12 00:54 WSW 9 10 Cloudy SCT012 BKN024 OVC045 74 72     94%   75 29.77 29.77      
Jul 12 00:50 WSW 10 10 Cloudy SCT012 BKN024 OVC045 73 72     94%   75 29.77        
Jul 12 00:15 SW 9 10 Cloudy BKN006 OVC012 73 71     94%   74 29.77        
Jul 11 23:54 SSW 7 10 Cloudy BKN010 OVC025 73 71     94%   74 29.77 29.77 0    
Jul 11 22:54 SE 5 10 Light Rain BKN013 OVC030 73 71     94%   74 29.77 29.77 0 0  
Jul 11 22:24 ESE 7 10 Light Rain BKN013 BKN025 OVC040 73 71     94%   74 29.79   0    
Jul 11 21:54 SSE 5 9 Light Rain OVC012 73 71     94%   74 29.79 29.79 0    
Jul 11 20:54 Calm 7 Light Rain OVC013 73 71     94%   74 29.8 29.79 0    
Jul 11 20:35 SE 5 10 Cloudy OVC011 73 71     94%   74 29.81   0    
Jul 11 20:05 ESE 7 7 Light Rain BKN010 BKN019 OVC050 73 71     94%   74 29.79   0    
Jul 11 19:54 SSE 9 5 Thunderstorms and Rain and Fog/Mist BKN010 BKN015 OVC050 73 71     94%   74 29.78 29.78 1   1
Jul 11 19:36 S 5 5 Thunderstorms and Rain and Fog/Mist BKN011 BKN031 BKN050 OVC130 74 71     91%   75 29.77   1    
Jul 11 19:26 SSW 6 5 Thunderstorms and Rain BKN015 BKN070 OVC110 75 70     84%   76 29.78   1    
Jul 11 19:14 3 4 Thunderstorms and Heavy Rain and Fog/Mist SCT015 BKN031 BKN050 OVC130 74 71     91%   75 29.79   1    
Jul 11 18:54   0.5 Thunderstorms and Heavy Rain and Fog FEW025 SCT037 BKN048 OVC130 73 71     94%   74 29.82 29.81 0    
Jul 11 18:48 NNE 7 0.5 Thunderstorms and Rain and Fog FEW025 SCT037 BKN048 OVC130 79 75     89%   82 29.83   0    
Jul 11 18:33 NNE 5 4 Thunderstorms and Rain and Fog/Mist SCT045 BKN060 OVC140 78 75     90%   80 29.78   0    
Jul 11 18:23 NNE 5 6 Thunderstorms and Rain and Fog/Mist SCT047 BKN060 OVC140 78 75     90%   80 29.79   0    
Jul 11 18:16 NE 5 9 Thunderstorms and Rain SCT047 BKN055 BKN070 OVC140 78 75     90%   80 29.78   0    
Jul 11 17:54 ENE 5 10 Cloudy SCT049 SCT100 OVC160 78 75     90%   80 29.79 29.78 0    
Jul 11 17:07 E 5 7 Light Rain SCT038 BKN090 OVC130 78 74     87%   80 29.79   0    
Jul 11 16:54 ESE 5 10 Cloudy SCT039 BKN085 OVC100 78 74     87%   80 29.8 29.8 0 0  
Jul 11 15:33 SSW 3 10 Light Rain SCT060 BKN100 OVC120 76 72     88%   77 29.83   0    
Jul 11 15:17 SSW 9 5 Rain and Fog/Mist SCT036 BKN050 OVC100 75 72     90%   76 29.85   0    
Jul 11 14:58   3 Thunderstorms and Rain and Fog/Mist FEW016 BKN043 BKN050 OVC140 75 71     88%   76 29.87   0    
Notice The following observation data may not be complete
Jul 11 14:54   2 Thunderstorms and Heavy Rain and Fog/Mist SCT021 BKN043 BKN055 OVC140   72      %     29.88 29.88 0    
Jul 11 14:48   1.5 Thunderstorms and Heavy Rain SCT021 BKN043 BKN055 OVC140 79 72     79%   82 29.89   0    
Jul 11 14:44   3 Thunderstorms and Rain BKN043 BKN055 BKN085 OVC140 82 72     72%   87 29.89   0    
Jul 11 14:32 S 9 7 Thunderstorms and Rain SCT041 BKN055 BKN085 OVC140 84 71     65%   89 29.86   0    
Jul 11 14:08 SSE 9 10 Thunderstorms BKN038 BKN050 OVC065 85 70     61%   89 29.86        
Jul 11 13:54 SSE 11 10 Cloudy FEW037 BKN055 OVC065 86 71     61%   92 29.85 29.84      
Jul 11 12:54 SE 7 10 Mostly Cloudy FEW030 BKN055 BKN065 BKN140 85 70     61%   89 29.89 29.88      
Jul 11 11:54 SSE 8 10 Cloudy FEW024 BKN050 OVC060 82 71     69%   86 29.92 29.91      
Jul 11 10:54 S 7 10 Cloudy FEW018 SCT045 BKN060 OVC130 81 72     74%   85 29.93 29.93      
Jul 11 10:03 S 8 10 Cloudy SCT017 BKN042 OVC140 81 72     74%   85 29.95        
Jul 11 09:54 S 8 10 Cloudy BKN017 BKN040 OVC140 80 72     76%   84 29.95 29.95      
Jul 11 09:29 S 7 10 Mostly Cloudy BKN017 BKN040 BKN140 80 71     74%   84 29.95        
Jul 11 08:54 S 6 10 Mostly Cloudy FEW015 SCT040 BKN130 78 71     79%   79 29.95 29.95      
Jul 11 07:54 S 5 10 Mostly Cloudy FEW012 SCT049 BKN130 BKN280 75 70     84%   76 29.97 29.96     0
Jul 11 05:54 SSE 5 10 Mostly Cloudy FEW045 BKN060 BKN120 BKN280 71 66     84%   72 29.98 29.97      
Jul 11 04:54 SSE 6 10 Partly Cloudy SCT045 71 63     76%   71 29.98 29.98      
Jul 11 03:54 S 5 10 Clear CLR 72 61     68%   72 29.97 29.97      
Jul 11 02:54 S 5 10 Partly Cloudy FEW055 SCT280 73 62     68%   73 29.98 29.98      
Jul 11 01:54 S 7 10 Mostly Clear FEW055 74 64     71%   74 29.99 29.99      
Jul 11 00:54 SSW 8 10 Mostly Clear FEW280 75 65     71%   76 30 29.99      
Jul 10 23:54 SSW 8 10 Clear CLR 76 65     69%   76 30 29.99      
Jul 10 22:54 S 10 10 Mostly Clear FEW280 77 64     64%   77 30 29.99      
Jul 10 21:54 S 10 10 Mostly Clear FEW250 79 63     58%   79 30.01 30      
Jul 10 20:54 S 10 10 Partly Cloudy SCT250 80 66     62%   82 29.99 29.99      
Jul 10 18:54 SSW 13 10 Partly Cloudy SCT042 SCT250 86 67     53%   89 29.99 29.98      
Jul 10 17:54 SSW 11 10 Partly Cloudy FEW046 SCT250 87 66     50%   89 30 29.99      
Jul 10 16:54 WSW 13 10 Partly Cloudy SCT048 SCT300 90 65     44%   92 30.01 30      
Jul 10 15:54 SW 11 10 Partly Cloudy FEW045 SCT060 SCT300 88 66     48%   90 30.02 30.02      
Jul 10 14:54 SW 9 10 Mostly Cloudy SCT048 BKN060 BKN300 88 65     47%   90 30.04 30.03      
Jul 10 13:54 WSW 10 10 Mostly Cloudy SCT048 BKN060 BKN300 87 64     46%   88 30.05 30.04      
Jul 10 12:54 SSW 9 10 Clear   86 63     46%   87 30.05 30.04      
Jul 10 11:54 WSW 9 10 Mostly Cloudy FEW038 SCT060 BKN300 85 66     53%   87 30.06 30.06      
Jul 10 10:54 7 10 Mostly Cloudy FEW033 BKN300 83 67     59%   86 30.07 30.06      
Jul 10 09:54 WSW 6 10 Mostly Cloudy BKN300 81 68     65%   84 30.07 30.06      
Jul 10 08:54 S 6 10 Partly Cloudy FEW050 SCT300 77 68     74%   78 30.08 30.07      
Jul 10 07:54 W 5 10 Clear   75 68     79%   76 30.08 30.08      
Jul 10 06:54 WSW 3 10 Mostly Cloudy FEW045 BKN300 74 67     79%   75 30.08 30.07      
Jul 10 05:54 WSW 5 10 Mostly Cloudy FEW045 BKN300 72 68     87%   73 30.07 30.07      
Jul 10 04:54 SW 6 10 Mostly Cloudy BKN280 73 68     84%   74 30.06 30.05      
Jul 10 03:54 SW 6 10 Mostly Cloudy BKN280 74 68     82%   75 30.05 30.05      
Jul 10 02:54 SW 8 10 Partly Cloudy SCT280 75 68     79%   76 30.05 30.05      
Jul 10 01:54 SW 7 10 Partly Cloudy SCT280 75 68     79%   76 30.06 30.06      
Jul 10 00:54 SW 6 10 Partly Cloudy SCT280 76 69     79%   77 30.07 30.06      
Jul 09 23:54 SSW 6 10 Partly Cloudy FEW050 SCT280 76 69     79%   77 30.07 30.07      
Jul 09 22:54 S 6 10 Mostly Cloudy FEW050 BKN280 77 68     74%   78 30.07 30.06      
Jul 09 21:54 WSW 8 10 Clear   81 67     62%   83 30.06 30.06      
Jul 09 20:54 SW 9 10 Partly Cloudy SCT250 82 66     58%   84 30.04 30.03      
Jul 09 19:54 SW 9 10 Mostly Clear FEW045 84 66     55%   86 30.03 30.02      
Jul 09 18:54 SW 9 10 Mostly Clear FEW045 85 66     53%   87 30.03 30.02      
Jul 09 17:54 SW 10 10 Mostly Clear FEW045 FEW065 86 65     50%   88 30.02 30.02      
Jul 09 16:54 W 11 10 Mostly Clear FEW045 FEW060 86 65     50%   88 30.03 30.03      
Jul 09 14:54 SSW 6 10 Partly Cloudy FEW045 SCT065 85 63     48%   86 30.04 30.04      
Jul 09 13:54 5 10 Partly Cloudy FEW045 SCT055 84 64     51%   85 30.06 30.06      
May 14 16:54 SSW 9 10 Partly Cloudy FEW025 SCT230 73 62     68%   73 29.96 29.95      
May 14 12:54 3 7 Cloudy OVC014 64 57     78%     30.03 30.02      
May 13 16:54 SSE 6 10 Cloudy FEW007 OVC010 56 53     90%     30.1 30.1   0  
May 13 11:54 E 10 9 Cloudy OVC009 55 52     89%     30.15 30.15      
May 13 01:54 ENE 9 5 Fog/Mist OVC009 57 55     93%     30.1 30.09     1
May 12 11:15 6 9 Cloudy OVC010 61 56     83%     30.11        
May 12 09:54 E 6 10 Cloudy OVC009 59 56     90%     30.11 30.11      
May 12 07:54 ENE 14 6 Fog/Mist BKN008 OVC012 55 53     93%     30.11 30.11     1
May 12 05:54   3 Thunderstorms and Rain and Fog/Mist FEW018 BKN032 OVC046 54 52     93%     30.1 30.1 0    
May 12 03:51   4 Heavy Rain SCT035 OVC055 57 50     77%     30.15   0    
May 12 02:54 NNE 9 10 Cloudy BKN060 OVC100 60 46     60%     30.1 30.09      
May 12 00:54 E 5 10 Cloudy FEW041 BKN075 OVC095 60 46     60%     30.11 30.11 0    
May 11 15:54 3 10 Partly Cloudy FEW070 FEW100 SCT260 76 43     31%   75 30.01 30.01      
May 11 12:54 WNW 13 10 Partly Cloudy SCT055 SCT250 74 49     41%   73 30.01 30.01      
Jun 10 21:54 SSW 6 10 Mostly Clear FEW070 78 58     50%   78 30.05 30.04      
Jun 10 15:54   10 Mostly Clear FEW065 87 53     31%   85 29.99 29.99      
Jun 10 11:54 SW 9 10 Mostly Clear FEW150 FEW280 82 55     40%   81 30.03 30.03      
Jun 10 08:54 WSW 6 10 Mostly Cloudy FEW060 BKN120 BKN280 73 56     55%   73 30.03 30.03      
Jun 08 08:54 6 10 Clear   64 51     63%     30.01 30.01      
Jun 07 16:54 ENE 5 10 Cloudy OVC047 65 48     54%     30.02 30.01      
Jun 07 09:37 ENE 9 10 Cloudy BKN023 OVC040 57 47     69%     30.01        
Jun 06 06:32 NE 8 2 Rain and Fog/Mist SCT004 BKN012 OVC031 61 59     93%     29.7   0